| time (UTC) | temp F | wind direction | speed MPH | gust MPH | rain 1hr in | rain 24hr in | rain mn in | humidity % | barometer mb |
| 20260507201059 | 70 | 0 | 0.0 | 2.0 | 0.00 | 0.02 | 0.00 | 62 | 1016.8 |
| 20260507200556 | 70 | 158 | 0.0 | 3.0 | 0.00 | 0.02 | 0.00 | 61 | 1016.7 |
| 20260507200106 | 70 | 0 | 0.0 | 3.0 | 0.00 | 0.02 | 0.00 | 60 | 1016.6 |
| 20260507195558 | 70 | 0 | 0.0 | 2.0 | 0.00 | 0.02 | 0.00 | 62 | 1016.4 |
| 20260507195056 | 70 | 0 | 0.0 | 3.0 | 0.00 | 0.02 | 0.00 | 62 | 1016.5 |
| 20260507194557 | 70 | 0 | 0.0 | 3.0 | 0.00 | 0.02 | 0.00 | 64 | 1016.6 |
| 20260507194059 | 69 | 208 | 0.0 | 3.0 | 0.00 | 0.02 | 0.00 | 59 | 1016.5 |
| 20260507193557 | 70 | 313 | 0.0 | 3.0 | 0.00 | 0.02 | 0.00 | 62 | 1016.7 |
| 20260507193132 | 70 | 0 | 0.0 | 3.0 | 0.00 | 0.02 | 0.00 | 59 | 1016.6 |
| 20260507192555 | 70 | 320 | 0.0 | 2.0 | 0.00 | 0.02 | 0.00 | 61 | 1016.7 |
| 20260507192100 | 70 | 0 | 0.0 | 2.0 | 0.00 | 0.02 | 0.00 | 62 | 1016.9 |
| 20260507191600 | 69 | 0 | 0.0 | 3.0 | 0.00 | 0.02 | 0.00 | 61 | 1017.0 |
| 20260507191100 | 69 | 0 | 1.0 | 3.0 | 0.00 | 0.02 | 0.00 | 59 | 1016.9 |
| 20260507190556 | 70 | 225 | 1.0 | 3.0 | 0.00 | 0.02 | 0.00 | 60 | 1017.3 |
| 20260507190055 | 70 | 0 | 0.0 | 3.0 | 0.00 | 0.02 | 0.00 | 60 | 1017.4 |
| 20260507185556 | 71 | 0 | 0.0 | 4.0 | 0.00 | 0.02 | 0.00 | 63 | 1017.6 |
| 20260507185056 | 71 | 302 | 0.0 | 4.0 | 0.00 | 0.02 | 0.00 | 61 | 1017.8 |
| 20260507184558 | 71 | 157 | 0.0 | 2.0 | 0.00 | 0.02 | 0.00 | 61 | 1018.0 |
| 20260507184100 | 71 | 328 | 0.0 | 2.0 | 0.00 | 0.02 | 0.00 | 61 | 1018.0 |
| 20260507183555 | 71 | 0 | 0.0 | 2.0 | 0.00 | 0.02 | 0.00 | 59 | 1018.1 |
| 20260507183103 | 72 | 154 | 0.0 | 2.0 | 0.00 | 0.02 | 0.00 | 61 | 1018.2 |
| 20260507182556 | 72 | 0 | 0.0 | 2.0 | 0.00 | 0.02 | 0.00 | 61 | 1018.0 |
| 20260507182055 | 71 | 0 | 0.0 | 3.0 | 0.00 | 0.02 | 0.00 | 62 | 1018.0 |
| 20260507181556 | 69 | 169 | 1.0 | 3.0 | 0.00 | 0.02 | 0.00 | 61 | 1018.1 |
| 20260507181055 | 70 | 244 | 0.0 | 3.0 | 0.00 | 0.02 | 0.00 | 62 | 1018.0 |
| 20260507180558 | 70 | 184 | 1.0 | 4.0 | 0.00 | 0.02 | 0.00 | 60 | 1018.0 |
| 20260507180119 | 71 | 0 | 1.0 | 4.0 | 0.00 | 0.02 | 0.00 | 58 | 1018.0 |
| 20260507175559 | 71 | 43 | 0.0 | 3.0 | 0.00 | 0.02 | 0.00 | 62 | 1017.9 |
| 20260507175054 | 71 | 150 | 0.0 | 3.0 | 0.00 | 0.02 | 0.00 | 68 | 1018.1 |
| 20260507174604 | 71 | 317 | 0.0 | 3.0 | 0.00 | 0.02 | 0.00 | 66 | 1018.0 |
| 20260507174056 | 71 | 0 | 0.0 | 3.0 | 0.00 | 0.02 | 0.00 | 66 | 1018.1 |
| 20260507173552 | 69 | 0 | 0.0 | 4.0 | 0.00 | 0.02 | 0.00 | 66 | 1017.9 |
| 20260507173131 | 68 | 0 | 0.0 | 5.0 | 0.00 | 0.02 | 0.00 | 64 | 1018.1 |
| 20260507172554 | 68 | 287 | 1.0 | 5.0 | 0.00 | 0.02 | 0.00 | 64 | 1018.2 |
| 20260507172051 | 69 | 202 | 0.0 | 4.0 | 0.00 | 0.02 | 0.00 | 64 | 1018.2 |
| 20260507171601 | 70 | 93 | 0.0 | 4.0 | 0.00 | 0.02 | 0.00 | 68 | 1018.2 |
| 20260507171055 | 68 | 254 | 0.0 | 2.0 | 0.00 | 0.02 | 0.00 | 72 | 1018.4 |
| 20260507170557 | 67 | 273 | 0.0 | 4.0 | 0.00 | 0.02 | 0.00 | 66 | 1018.5 |
| 20260507170057 | 67 | 0 | 0.0 | 4.0 | 0.00 | 0.02 | 0.00 | 69 | 1018.7 |
| 20260507165554 | 66 | 0 | 0.0 | 3.0 | 0.00 | 0.02 | 0.00 | 66 | 1018.7 |
| 20260507165055 | 67 | 352 | 0.0 | 2.0 | 0.00 | 0.02 | 0.00 | 69 | 1018.8 |
| 20260507164605 | 67 | 280 | 0.0 | 2.0 | 0.00 | 0.02 | 0.00 | 68 | 1019.1 |
| 20260507164055 | 67 | 0 | 0.0 | 2.0 | 0.00 | 0.02 | 0.00 | 68 | 1019.2 |
| 20260507163554 | 67 | 328 | 0.0 | 2.0 | 0.00 | 0.02 | 0.00 | 68 | 1019.2 |
| 20260507163054 | 66 | 28 | 0.0 | 3.0 | 0.00 | 0.02 | 0.00 | 69 | 1019.3 |
| 20260507162557 | 65 | 0 | 0.0 | 3.0 | 0.00 | 0.02 | 0.00 | 71 | 1019.6 |
| 20260507162056 | 66 | 175 | 0.0 | 4.0 | 0.00 | 0.02 | 0.00 | 71 | 1019.5 |
| 20260507161608 | 66 | 0 | 0.0 | 4.0 | 0.00 | 0.02 | 0.00 | 70 | 1019.7 |
| 20260507161054 | 65 | 259 | 0.0 | 3.0 | 0.00 | 0.02 | 0.00 | 71 | 1019.6 |
| 20260507160554 | 65 | 213 | 0.0 | 3.0 | 0.00 | 0.02 | 0.00 | 71 | 1019.5 |
| 20260507160116 | 66 | 198 | 0.0 | 4.0 | 0.00 | 0.02 | 0.00 | 73 | 1019.5 |
| 20260507155553 | 66 | 0 | 0.0 | 4.0 | 0.00 | 0.02 | 0.00 | 72 | 1019.5 |
| 20260507155054 | 66 | 163 | 0.0 | 2.0 | 0.00 | 0.02 | 0.00 | 75 | 1019.5 |
| 20260507154556 | 65 | 0 | 0.0 | 2.0 | 0.00 | 0.02 | 0.00 | 73 | 1019.5 |
| 20260507154054 | 64 | 0 | 0.0 | 2.0 | 0.00 | 0.02 | 0.00 | 75 | 1019.5 |
| 20260507153552 | 64 | 0 | 0.0 | 3.0 | 0.00 | 0.02 | 0.00 | 75 | 1019.7 |
| 20260507153055 | 65 | 173 | 0.0 | 3.0 | 0.00 | 0.02 | 0.00 | 73 | 1019.6 |
| 20260507152555 | 65 | 31 | 0.0 | 2.0 | 0.00 | 0.02 | 0.00 | 75 | 1019.5 |
| 20260507152055 | 65 | 0 | 0.0 | 2.0 | 0.00 | 0.02 | 0.00 | 74 | 1019.5 |
| 20260507151558 | 64 | 0 | 0.0 | 5.0 | 0.00 | 0.02 | 0.00 | 79 | 1019.5 |
| 20260507151056 | 62 | 174 | 0.0 | 5.0 | 0.00 | 0.02 | 0.00 | 79 | 1019.7 |
| 20260507150554 | 62 | 220 | 0.0 | 3.0 | 0.00 | 0.02 | 0.00 | 76 | 1019.6 |
| 20260507150054 | 62 | 0 | 0.0 | 2.0 | 0.00 | 0.02 | 0.00 | 76 | 1019.7 |
| 20260507145554 | 63 | 0 | 0.0 | 2.0 | 0.00 | 0.05 | 0.00 | 76 | 1019.9 |
| 20260507145054 | 63 | 0 | 0.0 | 3.0 | 0.00 | 0.05 | 0.00 | 77 | 1019.7 |
| 20260507144604 | 63 | 174 | 0.0 | 3.0 | 0.00 | 0.05 | 0.00 | 78 | 1019.7 |
| 20260507144056 | 62 | 15 | 0.0 | 3.0 | 0.00 | 0.05 | 0.00 | 79 | 1019.7 |
| 20260507143555 | 62 | 0 | 0.0 | 3.0 | 0.00 | 0.05 | 0.00 | 80 | 1019.7 |
| 20260507143100 | 61 | 0 | 0.0 | 2.0 | 0.00 | 0.05 | 0.00 | 82 | 1019.8 |
| 20260507142556 | 60 | 0 | 0.0 | 2.0 | 0.00 | 0.05 | 0.00 | 84 | 1020.0 |
| 20260507142056 | 60 | 0 | 0.0 | 2.0 | 0.00 | 0.05 | 0.00 | 83 | 1019.9 |
| 20260507141619 | 60 | 0 | 0.0 | 2.0 | 0.00 | 0.05 | 0.00 | 84 | 1020.1 |
| 20260507141055 | 59 | 0 | 0.0 | 2.0 | 0.00 | 0.05 | 0.00 | 85 | 1020.1 |
| 20260507140557 | 58 | 0 | 0.0 | 2.0 | 0.00 | 0.05 | 0.00 | 85 | 1020.2 |
| 20260507140110 | 58 | 65 | 0.0 | 2.0 | 0.00 | 0.05 | 0.00 | 84 | 1020.0 |
| 20260507135600 | 58 | 0 | 0.0 | 2.0 | 0.00 | 0.05 | 0.00 | 85 | 1020.1 |
| 20260507135056 | 57 | 0 | 0.0 | 1.0 | 0.00 | 0.05 | 0.00 | 86 | 1020.3 |
| 20260507134603 | 57 | 0 | 0.0 | 1.0 | 0.00 | 0.05 | 0.00 | 87 | 1020.2 |
| 20260507134056 | 56 | 0 | 0.0 | 2.0 | 0.00 | 0.05 | 0.00 | 87 | 1020.2 |
| 20260507133556 | 56 | 0 | 0.0 | 2.0 | 0.00 | 0.05 | 0.00 | 87 | 1020.2 |
| 20260507133056 | 56 | 315 | 0.0 | 2.0 | 0.00 | 0.05 | 0.00 | 88 | 1020.2 |
| 20260507132555 | 55 | 0 | 0.0 | 2.0 | 0.00 | 0.05 | 0.00 | 89 | 1020.0 |
| 20260507132055 | 55 | 0 | 0.0 | 2.0 | 0.00 | 0.05 | 0.00 | 89 | 1020.3 |
| 20260507131556 | 54 | 0 | 0.0 | 1.0 | 0.00 | 0.05 | 0.00 | 89 | 1020.3 |
| 20260507131057 | 54 | 0 | 0.0 | 1.0 | 0.00 | 0.05 | 0.00 | 89 | 1020.2 |
| 20260507130556 | 54 | 0 | 0.0 | 1.0 | 0.00 | 0.05 | 0.00 | 89 | 1020.2 |
| 20260507130053 | 54 | 0 | 0.0 | 0.0 | 0.00 | 0.05 | 0.00 | 90 | 1020.2 |
| 20260507125556 | 54 | 0 | 0.0 | 0.0 | 0.00 | 0.05 | 0.00 | 89 | 1020.2 |
| 20260507125056 | 54 | 0 | 0.0 | 0.0 | 0.00 | 0.05 | 0.00 | 90 | 1020.2 |
| 20260507124554 | 54 | 0 | 0.0 | 0.0 | 0.00 | 0.05 | 0.00 | 90 | 1020.1 |
| 20260507124056 | 53 | 0 | 0.0 | 1.0 | 0.00 | 0.05 | 0.00 | 90 | 1020.0 |
| 20260507123556 | 53 | 0 | 0.0 | 1.0 | 0.00 | 0.05 | 0.00 | 90 | 1020.0 |
| 20260507123057 | 53 | 0 | 0.0 | 0.0 | 0.00 | 0.05 | 0.00 | 90 | 1020.2 |
| 20260507122556 | 52 | 0 | 0.0 | 0.0 | 0.00 | 0.05 | 0.00 | 90 | 1020.3 |
| 20260507122056 | 52 | 0 | 0.0 | 1.0 | 0.00 | 0.05 | 0.00 | 90 | 1020.3 |
| 20260507121557 | 52 | 0 | 0.0 | 1.0 | 0.00 | 0.05 | 0.00 | 89 | 1020.3 |
| 20260507121057 | 52 | 0 | 0.0 | 0.0 | 0.00 | 0.05 | 0.00 | 89 | 1020.3 |
| 20260507120555 | 52 | 0 | 0.0 | 0.0 | 0.00 | 0.05 | 0.00 | 89 | 1020.1 |
| 20260507120056 | 52 | 0 | 0.0 | 0.0 | 0.00 | 0.05 | 0.00 | 89 | 1020.1 |
| 20260507115555 | 52 | 0 | 0.0 | 0.0 | 0.00 | 0.05 | 0.00 | 89 | 1020.3 |
| 20260507115054 | 52 | 0 | 0.0 | 0.0 | 0.00 | 0.05 | 0.00 | 89 | 1020.2 |
| 20260507114603 | 52 | 0 | 0.0 | 0.0 | 0.00 | 0.05 | 0.00 | 89 | 1020.4 |
| 20260507114056 | 52 | 0 | 0.0 | 0.0 | 0.00 | 0.05 | 0.00 | 89 | 1020.4 |
| 20260507113557 | 52 | 0 | 0.0 | 0.0 | 0.00 | 0.05 | 0.00 | 89 | 1020.4 |
| 20260507113055 | 52 | 0 | 0.0 | 2.0 | 0.00 | 0.05 | 0.00 | 89 | 1020.3 |
| 20260507112557 | 52 | 0 | 0.0 | 2.0 | 0.00 | 0.05 | 0.00 | 89 | 1020.2 |
| 20260507112056 | 52 | 0 | 0.0 | 1.0 | 0.00 | 0.05 | 0.00 | 89 | 1020.2 |
| 20260507111601 | 52 | 0 | 0.0 | 1.0 | 0.00 | 0.05 | 0.00 | 89 | 1020.1 |
| 20260507111058 | 52 | 0 | 0.0 | 1.0 | 0.00 | 0.05 | 0.00 | 89 | 1020.0 |
| 20260507110554 | 52 | 0 | 0.0 | 2.0 | 0.00 | 0.05 | 0.00 | 89 | 1020.0 |
| 20260507110055 | 52 | 0 | 0.0 | 2.0 | 0.00 | 0.05 | 0.00 | 89 | 1019.8 |
| 20260507105553 | 52 | 17 | 0.0 | 1.0 | 0.00 | 0.05 | 0.00 | 89 | 1019.8 |
| 20260507105053 | 52 | 0 | 0.0 | 2.0 | 0.00 | 0.05 | 0.00 | 89 | 1019.8 |
| 20260507104554 | 52 | 0 | 0.0 | 2.0 | 0.00 | 0.05 | 0.00 | 89 | 1019.7 |
| 20260507104056 | 52 | 0 | 0.0 | 2.0 | 0.00 | 0.05 | 0.00 | 89 | 1019.6 |
| 20260507103556 | 52 | 0 | 0.0 | 1.0 | 0.00 | 0.05 | 0.00 | 89 | 1019.5 |
| 20260507103054 | 53 | 0 | 0.0 | 2.0 | 0.00 | 0.05 | 0.00 | 89 | 1019.4 |
| 20260507102553 | 53 | 0 | 0.0 | 2.0 | 0.00 | 0.05 | 0.00 | 88 | 1019.3 |
| 20260507102055 | 53 | 0 | 0.0 | 1.0 | 0.00 | 0.05 | 0.00 | 88 | 1019.2 |
| 20260507101611 | 53 | 0 | 0.0 | 1.0 | 0.00 | 0.05 | 0.00 | 88 | 1018.9 |
| 20260507101053 | 53 | 16 | 0.0 | 1.0 | 0.00 | 0.05 | 0.00 | 88 | 1018.8 |
| 20260507100554 | 53 | 0 | 0.0 | 1.0 | 0.00 | 0.05 | 0.00 | 89 | 1018.9 |
| 20260507100055 | 53 | 0 | 0.0 | 1.0 | 0.00 | 0.05 | 0.00 | 88 | 1018.9 |
| 20260507095554 | 53 | 0 | 0.0 | 2.0 | 0.00 | 0.05 | 0.00 | 88 | 1018.6 |
| 20260507095054 | 53 | 0 | 0.0 | 2.0 | 0.00 | 0.05 | 0.00 | 88 | 1018.8 |
| 20260507094556 | 53 | 304 | 0.0 | 2.0 | 0.00 | 0.05 | 0.00 | 88 | 1018.6 |
| 20260507094053 | 53 | 0 | 0.0 | 3.0 | 0.00 | 0.05 | 0.00 | 88 | 1018.4 |
| 20260507093556 | 53 | 0 | 0.0 | 3.0 | 0.00 | 0.05 | 0.00 | 88 | 1018.2 |
| 20260507093057 | 53 | 0 | 0.0 | 3.0 | 0.00 | 0.05 | 0.00 | 88 | 1018.1 |
| 20260507092554 | 53 | 0 | 0.0 | 2.0 | 0.00 | 0.05 | 0.00 | 88 | 1018.1 |
| 20260507092055 | 54 | 0 | 0.0 | 2.0 | 0.00 | 0.05 | 0.00 | 88 | 1018.2 |
| 20260507091556 | 54 | 0 | 0.0 | 2.0 | 0.00 | 0.05 | 0.00 | 88 | 1017.9 |
| 20260507091056 | 54 | 0 | 0.0 | 2.0 | 0.00 | 0.05 | 0.00 | 88 | 1018.0 |
| 20260507090555 | 54 | 0 | 0.0 | 0.0 | 0.00 | 0.05 | 0.00 | 88 | 1018.1 |
| 20260507090110 | 54 | 0 | 0.0 | 1.0 | 0.00 | 0.05 | 0.00 | 88 | 1017.9 |
| 20260507085556 | 54 | 0 | 0.0 | 1.0 | 0.00 | 0.05 | 0.00 | 88 | 1018.0 |
| 20260507085054 | 54 | 0 | 0.0 | 0.0 | 0.00 | 0.05 | 0.00 | 88 | 1017.9 |
| 20260507084555 | 54 | 0 | 0.0 | 0.0 | 0.00 | 0.05 | 0.00 | 88 | 1017.9 |
| 20260507084056 | 55 | 0 | 0.0 | 0.0 | 0.00 | 0.05 | 0.00 | 88 | 1017.9 |
| 20260507083556 | 55 | 0 | 0.0 | 0.0 | 0.00 | 0.05 | 0.00 | 88 | 1017.9 |
| 20260507083054 | 55 | 0 | 0.0 | 0.0 | 0.00 | 0.05 | 0.00 | 88 | 1017.9 |
| 20260507082558 | 55 | 0 | 0.0 | 1.0 | 0.00 | 0.05 | 0.00 | 88 | 1017.7 |
| 20260507082055 | 55 | 0 | 0.0 | 1.0 | 0.00 | 0.05 | 0.00 | 88 | 1017.6 |
| 20260507081557 | 55 | 0 | 0.0 | 1.0 | 0.00 | 0.05 | 0.00 | 88 | 1017.5 |
| 20260507081056 | 55 | 0 | 0.0 | 1.0 | 0.00 | 0.05 | 0.00 | 88 | 1017.4 |
| 20260507080556 | 55 | 0 | 0.0 | 2.0 | 0.00 | 0.05 | 0.00 | 88 | 1017.4 |
| 20260507075557 | 55 | 0 | 0.0 | 2.0 | 0.00 | 0.05 | 0.00 | 88 | 1017.0 |
| 20260507075056 | 55 | 19 | 0.0 | 2.0 | 0.00 | 0.05 | 0.00 | 89 | 1017.1 |
| 20260507074558 | 55 | 0 | 0.0 | 2.0 | 0.00 | 0.05 | 0.00 | 89 | 1017.2 |
| 20260507074055 | 55 | 0 | 0.0 | 1.0 | 0.00 | 0.05 | 0.00 | 89 | 1017.5 |
| 20260507073555 | 55 | 188 | 0.0 | 1.0 | 0.00 | 0.05 | 0.00 | 89 | 1017.5 |
| 20260507073053 | 55 | 35 | 0.0 | 1.0 | 0.00 | 0.05 | 0.00 | 89 | 1017.2 |
| 20260507072556 | 55 | 0 | 0.0 | 1.0 | 0.00 | 0.05 | 0.00 | 89 | 1017.4 |
| 20260507072055 | 56 | 0 | 0.0 | 1.0 | 0.00 | 0.05 | 0.00 | 89 | 1017.2 |
| 20260507071604 | 56 | 280 | 0.0 | 1.0 | 0.00 | 0.05 | 0.00 | 89 | 1017.3 |
| 20260507071056 | 56 | 0 | 0.0 | 1.0 | 0.00 | 0.05 | 0.00 | 89 | 1016.8 |
| 20260507070556 | 56 | 0 | 0.0 | 1.0 | 0.00 | 0.05 | 0.00 | 89 | 1017.1 |
| 20260507065556 | 56 | 0 | 0.0 | 0.0 | 0.00 | 0.05 | 0.00 | 89 | 1016.8 |
| 20260507065055 | 56 | 0 | 0.0 | 0.0 | 0.00 | 0.05 | 0.00 | 89 | 1016.8 |
| 20260507064618 | 56 | 0 | 0.0 | 1.0 | 0.00 | 0.05 | 0.00 | 89 | 1016.8 |
| 20260507064055 | 56 | 0 | 0.0 | 1.0 | 0.00 | 0.05 | 0.00 | 89 | 1016.8 |
| 20260507063556 | 56 | 0 | 0.0 | 1.0 | 0.00 | 0.05 | 0.00 | 89 | 1016.7 |
| 20260507063056 | 56 | 0 | 0.0 | 2.0 | 0.00 | 0.05 | 0.00 | 89 | 1016.4 |
| 20260507062553 | 56 | 0 | 0.0 | 2.0 | 0.00 | 0.05 | 0.00 | 89 | 1016.5 |
| 20260507062054 | 56 | 0 | 0.0 | 2.0 | 0.00 | 0.05 | 0.00 | 90 | 1016.3 |
| 20260507061605 | 56 | 0 | 0.0 | 2.0 | 0.00 | 0.05 | 0.00 | 89 | 1016.5 |
| 20260507061053 | 56 | 0 | 0.0 | 1.0 | 0.00 | 0.05 | 0.00 | 90 | 1016.5 |
| 20260507060556 | 56 | 298 | 0.0 | 1.0 | 0.00 | 0.05 | 0.00 | 90 | 1016.4 |
| 20260507060059 | 56 | 0 | 0.0 | 1.0 | 0.00 | 0.05 | 0.00 | 90 | 1016.4 |
| 20260507055556 | 56 | 0 | 0.0 | 1.0 | 0.00 | 0.05 | 0.00 | 90 | 1016.4 |
| 20260507055054 | 56 | 0 | 0.0 | 1.0 | 0.00 | 0.05 | 0.00 | 90 | 1016.4 |
| 20260507054610 | 56 | 0 | 0.0 | 3.0 | 0.00 | 0.05 | 0.00 | 90 | 1016.5 |
| 20260507054055 | 56 | 0 | 0.0 | 3.0 | 0.00 | 0.05 | 0.00 | 90 | 1016.4 |
| 20260507053556 | 56 | 300 | 0.0 | 3.0 | 0.00 | 0.05 | 0.00 | 90 | 1016.4 |
| 20260507053054 | 56 | 0 | 0.0 | 2.0 | 0.00 | 0.05 | 0.00 | 90 | 1016.5 |
| 20260507052555 | 56 | 0 | 0.0 | 1.0 | 0.00 | 0.05 | 0.00 | 90 | 1016.5 |
| 20260507052055 | 56 | 0 | 0.0 | 1.0 | 0.00 | 0.05 | 0.00 | 90 | 1016.6 |
| 20260507051555 | 56 | 0 | 0.0 | 1.0 | 0.00 | 0.05 | 0.00 | 90 | 1016.5 |
| 20260507051052 | 56 | 0 | 0.0 | 2.0 | 0.00 | 0.05 | 0.00 | 90 | 1016.5 |
| 20260507050553 | 56 | 0 | 0.0 | 2.0 | 0.00 | 0.05 | 0.00 | 90 | 1016.6 |
| 20260507050055 | 56 | 0 | 0.0 | 2.0 | 0.00 | 0.05 | 0.00 | 91 | 1016.3 |
| 20260507045556 | 56 | 0 | 0.0 | 1.0 | 0.00 | 0.05 | 0.05 | 91 | 1016.3 |
| 20260507045053 | 56 | 0 | 0.0 | 1.0 | 0.00 | 0.05 | 0.05 | 91 | 1016.4 |
| 20260507044555 | 56 | 0 | 0.0 | 1.0 | 0.00 | 0.05 | 0.05 | 91 | 1016.3 |
| 20260507044055 | 57 | 0 | 0.0 | 1.0 | 0.00 | 0.05 | 0.05 | 90 | 1016.2 |
| 20260507043556 | 57 | 0 | 0.0 | 1.0 | 0.00 | 0.05 | 0.05 | 90 | 1016.3 |
| 20260507043102 | 57 | 0 | 0.0 | 1.0 | 0.00 | 0.05 | 0.05 | 91 | 1016.3 |
| 20260507042556 | 57 | 0 | 0.0 | 1.0 | 0.00 | 0.05 | 0.05 | 91 | 1016.5 |
| 20260507042055 | 57 | 0 | 0.0 | 0.0 | 0.00 | 0.05 | 0.05 | 90 | 1016.5 |
| 20260507041605 | 57 | 0 | 0.0 | 1.0 | 0.00 | 0.05 | 0.05 | 91 | 1016.5 |
| 20260507041055 | 57 | 0 | 0.0 | 1.0 | 0.00 | 0.05 | 0.05 | 91 | 1016.5 |
| 20260507040555 | 57 | 0 | 0.0 | 1.0 | 0.00 | 0.05 | 0.05 | 91 | 1016.5 |
| 20260507040059 | 57 | 0 | 0.0 | 1.0 | 0.00 | 0.05 | 0.05 | 91 | 1016.6 |
| 20260507035555 | 57 | 0 | 0.0 | 1.0 | 0.00 | 0.05 | 0.05 | 91 | 1016.5 |
| 20260507035055 | 57 | 0 | 0.0 | 1.0 | 0.00 | 0.05 | 0.05 | 91 | 1016.5 |
| 20260507034557 | 57 | 0 | 0.0 | 1.0 | 0.00 | 0.05 | 0.05 | 91 | 1016.5 |
| 20260507034056 | 57 | 0 | 0.0 | 1.0 | 0.00 | 0.05 | 0.05 | 91 | 1016.6 |
| 20260507033557 | 57 | 0 | 0.0 | 1.0 | 0.00 | 0.05 | 0.05 | 91 | 1016.3 |
| 20260507033053 | 57 | 0 | 0.0 | 0.0 | 0.00 | 0.05 | 0.05 | 91 | 1016.4 |
| 20260507032554 | 58 | 0 | 0.0 | 0.0 | 0.00 | 0.05 | 0.05 | 91 | 1016.5 |
| 20260507032054 | 58 | 0 | 0.0 | 0.0 | 0.00 | 0.05 | 0.05 | 91 | 1016.4 |
| 20260507031558 | 58 | 0 | 0.0 | 0.0 | 0.00 | 0.05 | 0.05 | 90 | 1016.6 |
| 20260507031059 | 58 | 0 | 0.0 | 0.0 | 0.00 | 0.05 | 0.05 | 90 | 1016.4 |
| 20260507030555 | 58 | 0 | 0.0 | 0.0 | 0.00 | 0.05 | 0.05 | 90 | 1016.4 |
| 20260507025555 | 58 | 0 | 0.0 | 2.0 | 0.00 | 0.05 | 0.05 | 90 | 1016.3 |
| 20260507025055 | 58 | 0 | 0.0 | 2.0 | 0.00 | 0.05 | 0.05 | 89 | 1016.2 |
| 20260507024553 | 59 | 0 | 0.0 | 1.0 | 0.00 | 0.05 | 0.05 | 89 | 1016.2 |
| 20260507024055 | 59 | 0 | 0.0 | 1.0 | 0.00 | 0.05 | 0.05 | 89 | 1016.0 |
| 20260507023556 | 59 | 0 | 0.0 | 1.0 | 0.00 | 0.05 | 0.05 | 89 | 1016.0 |
| 20260507023111 | 59 | 0 | 0.0 | 1.0 | 0.00 | 0.05 | 0.05 | 89 | 1015.7 |
| 20260507022556 | 59 | 0 | 0.0 | 1.0 | 0.00 | 0.05 | 0.05 | 89 | 1015.9 |
| 20260507022055 | 59 | 0 | 0.0 | 1.0 | 0.00 | 0.05 | 0.05 | 88 | 1015.7 |
| 20260507021557 | 59 | 0 | 0.0 | 1.0 | 0.00 | 0.05 | 0.05 | 88 | 1015.6 |
| 20260507021055 | 59 | 0 | 0.0 | 1.0 | 0.00 | 0.05 | 0.05 | 88 | 1015.6 |
| 20260507020555 | 59 | 0 | 0.0 | 1.0 | 0.00 | 0.05 | 0.05 | 88 | 1015.4 |
| 20260507020054 | 59 | 0 | 0.0 | 1.0 | 0.00 | 0.05 | 0.05 | 88 | 1015.3 |
| 20260507015554 | 60 | 0 | 0.0 | 1.0 | 0.00 | 0.05 | 0.05 | 87 | 1015.2 |
| 20260507015055 | 60 | 0 | 0.0 | 2.0 | 0.00 | 0.05 | 0.05 | 87 | 1015.2 |
| 20260507014606 | 60 | 261 | 0.0 | 2.0 | 0.00 | 0.05 | 0.05 | 87 | 1015.0 |
| 20260507014056 | 60 | 0 | 0.0 | 2.0 | 0.00 | 0.05 | 0.05 | 87 | 1015.1 |
| 20260507013554 | 60 | 226 | 0.0 | 2.0 | 0.00 | 0.05 | 0.05 | 87 | 1014.8 |
| 20260507013112 | 60 | 0 | 0.0 | 1.0 | 0.00 | 0.05 | 0.05 | 87 | 1014.6 |
| 20260507012554 | 60 | 0 | 0.0 | 2.0 | 0.00 | 0.05 | 0.05 | 87 | 1014.6 |
| 20260507012055 | 60 | 0 | 0.0 | 2.0 | 0.00 | 0.05 | 0.05 | 86 | 1014.5 |
| 20260507011554 | 61 | 0 | 0.0 | 3.0 | 0.00 | 0.05 | 0.05 | 86 | 1014.4 |
| 20260507011055 | 61 | 211 | 0.0 | 3.0 | 0.00 | 0.05 | 0.05 | 86 | 1014.3 |
| 20260507010555 | 61 | 0 | 0.0 | 2.0 | 0.00 | 0.05 | 0.05 | 85 | 1014.2 |
| 20260507010056 | 61 | 0 | 0.0 | 2.0 | 0.00 | 0.05 | 0.05 | 85 | 1014.1 |
| 20260507005555 | 61 | 0 | 0.0 | 2.0 | 0.00 | 0.05 | 0.05 | 85 | 1014.2 |
| 20260507005055 | 61 | 209 | 0.0 | 2.0 | 0.00 | 0.05 | 0.05 | 84 | 1013.9 |
| 20260507004557 | 61 | 0 | 0.0 | 2.0 | 0.00 | 0.05 | 0.05 | 84 | 1014.0 |
| 20260507004053 | 61 | 0 | 0.0 | 2.0 | 0.00 | 0.05 | 0.05 | 83 | 1013.9 |
| 20260507003552 | 61 | 0 | 0.0 | 2.0 | 0.00 | 0.05 | 0.05 | 83 | 1013.9 |
| 20260507003056 | 62 | 0 | 0.0 | 2.0 | 0.00 | 0.05 | 0.05 | 83 | 1014.0 |
| 20260507002552 | 62 | 0 | 0.0 | 2.0 | 0.00 | 0.05 | 0.05 | 83 | 1014.2 |
| 20260507002052 | 62 | 0 | 0.0 | 2.0 | 0.00 | 0.05 | 0.05 | 83 | 1014.2 |
| 20260507001617 | 62 | 180 | 0.0 | 2.0 | 0.00 | 0.05 | 0.05 | 83 | 1014.0 |
| 20260507001055 | 62 | 0 | 0.0 | 3.0 | 0.00 | 0.05 | 0.05 | 83 | 1014.0 |
| 20260507000552 | 62 | 194 | 0.0 | 3.0 | 0.00 | 0.05 | 0.05 | 83 | 1014.0 |
| 20260507000059 | 62 | 185 | 0.0 | 2.0 | 0.00 | 0.05 | 0.05 | 84 | 1014.0 |
| 20260506235552 | 62 | 0 | 0.0 | 2.0 | 0.00 | 0.05 | 0.05 | 84 | 1013.9 |
| 20260506235056 | 62 | 0 | 0.0 | 2.0 | 0.00 | 0.05 | 0.05 | 83 | 1013.8 |
| 20260506234554 | 62 | 0 | 0.0 | 1.0 | 0.00 | 0.05 | 0.05 | 83 | 1013.9 |
| 20260506234057 | 62 | 0 | 0.0 | 2.0 | 0.00 | 0.05 | 0.05 | 85 | 1014.0 |
| 20260506233553 | 62 | 0 | 0.0 | 2.0 | 0.00 | 0.05 | 0.05 | 85 | 1013.8 |
| 20260506233102 | 62 | 192 | 0.0 | 1.0 | 0.00 | 0.05 | 0.05 | 84 | 1013.7 |
| 20260506232555 | 62 | 0 | 0.0 | 1.0 | 0.00 | 0.05 | 0.05 | 84 | 1013.7 |
| 20260506232052 | 62 | 0 | 0.0 | 2.0 | 0.00 | 0.05 | 0.05 | 85 | 1013.6 |
| 20260506231555 | 62 | 0 | 0.0 | 2.0 | 0.00 | 0.05 | 0.05 | 85 | 1013.5 |
| 20260506231053 | 61 | 0 | 0.0 | 2.0 | 0.00 | 0.05 | 0.05 | 85 | 1013.4 |
| 20260506230552 | 61 | 259 | 0.0 | 2.0 | 0.00 | 0.05 | 0.05 | 85 | 1013.5 |
| 20260506230056 | 62 | 0 | 0.0 | 2.0 | 0.02 | 0.05 | 0.05 | 85 | 1013.3 |
| 20260506225557 | 61 | 251 | 0.0 | 2.0 | 0.02 | 0.05 | 0.05 | 85 | 1013.3 |
| 20260506225055 | 61 | 0 | 0.0 | 2.0 | 0.02 | 0.05 | 0.05 | 86 | 1013.3 |
| 20260506224554 | 60 | 0 | 0.0 | 2.0 | 0.02 | 0.05 | 0.05 | 86 | 1013.3 |
| 20260506224051 | 61 | 0 | 0.0 | 2.0 | 0.02 | 0.05 | 0.05 | 88 | 1013.5 |
| 20260506223555 | 60 | 0 | 0.0 | 2.0 | 0.02 | 0.05 | 0.05 | 87 | 1013.4 |
| 20260506223111 | 60 | 0 | 0.0 | 2.0 | 0.02 | 0.05 | 0.05 | 88 | 1013.4 |
| 20260506222555 | 61 | 0 | 0.0 | 2.0 | 0.02 | 0.05 | 0.05 | 89 | 1013.0 |
| 20260506222059 | 60 | 0 | 0.0 | 2.0 | 0.02 | 0.05 | 0.05 | 89 | 1013.3 |
| 20260506221602 | 60 | 0 | 0.0 | 2.0 | 0.02 | 0.05 | 0.05 | 88 | 1013.1 |
| 20260506221056 | 60 | 0 | 0.0 | 2.0 | 0.02 | 0.05 | 0.05 | 86 | 1013.3 |
| 20260506220553 | 61 | 46 | 0.0 | 2.0 | 0.02 | 0.05 | 0.05 | 83 | 1013.7 |
| 20260506220056 | 62 | 0 | 0.0 | 1.0 | 0.00 | 0.03 | 0.03 | 81 | 1013.6 |
| 20260506215552 | 62 | 0 | 0.0 | 1.0 | 0.00 | 0.03 | 0.03 | 80 | 1013.4 |
| 20260506215052 | 62 | 0 | 0.0 | 2.0 | 0.00 | 0.03 | 0.03 | 78 | 1013.5 |
| 20260506214604 | 62 | 0 | 0.0 | 2.0 | 0.00 | 0.03 | 0.03 | 77 | 1013.6 |
| 20260506214056 | 63 | 36 | 0.0 | 3.0 | 0.00 | 0.03 | 0.03 | 77 | 1013.5 |
| 20260506213555 | 63 | 0 | 0.0 | 3.0 | 0.00 | 0.03 | 0.03 | 77 | 1013.6 |
| 20260506213054 | 64 | 37 | 0.0 | 2.0 | 0.00 | 0.03 | 0.03 | 78 | 1013.4 |
| 20260506212555 | 64 | 0 | 0.0 | 2.0 | 0.00 | 0.03 | 0.03 | 76 | 1013.7 |
| 20260506212058 | 64 | 360 | 0.0 | 2.0 | 0.00 | 0.03 | 0.03 | 78 | 1013.5 |
| 20260506211556 | 63 | 288 | 0.0 | 3.0 | 0.00 | 0.03 | 0.03 | 79 | 1013.1 |
| 20260506211055 | 63 | 17 | 0.0 | 3.0 | 0.00 | 0.03 | 0.03 | 77 | 1013.5 |
| 20260506210555 | 63 | 0 | 0.0 | 2.0 | 0.00 | 0.03 | 0.03 | 77 | 1013.5 |
| 20260506205555 | 63 | 0 | 0.0 | 2.0 | 0.00 | 0.03 | 0.03 | 78 | 1013.3 |
| 20260506205054 | 63 | 19 | 0.0 | 2.0 | 0.00 | 0.03 | 0.03 | 77 | 1013.3 |
| 20260506204555 | 63 | 229 | 0.0 | 3.0 | 0.00 | 0.03 | 0.03 | 78 | 1013.6 |
| 20260506204053 | 63 | 218 | 0.0 | 3.0 | 0.00 | 0.03 | 0.03 | 77 | 1013.6 |
| 20260506203553 | 63 | 0 | 0.0 | 2.0 | 0.00 | 0.03 | 0.03 | 77 | 1013.7 |
| 20260506203100 | 63 | 0 | 0.0 | 2.0 | 0.00 | 0.03 | 0.03 | 78 | 1013.8 |
| 20260506202553 | 62 | 0 | 0.0 | 2.0 | 0.00 | 0.03 | 0.03 | 78 | 1013.9 |
| 20260506202054 | 62 | 0 | 0.0 | 3.0 | 0.00 | 0.03 | 0.03 | 79 | 1013.9 |
| 20260506201556 | 62 | 0 | 0.0 | 3.0 | 0.00 | 0.03 | 0.03 | 79 | 1014.1 |